Probability
0 0 0 0 0 0 0 0 0 0 0 0 0 0 0 0 0 0 0 0 0 0 0 0 0 0 0 0 0 0 0 0 0 0 0 0 0 0 0 0 0 0 0 0
0 0 0 0 0 0 0 0 0 0 0 0 0 0 0 0 0 0 0 0 0 0 0 0 0 0 0 0 0 0 0 0 0 0 0 0 0 0 0 0 0 0 0 0
0 0 0 0 0 0 0 0 0 0 0 0 0 0 0 0 0 0 0 0 0 0 0 0 0 0 0 0 1 1 0 0 0 0 0 0 0 0 0 0 0 0 0 0
0 0 0 0 0 0 0 0 0 0 0 0 0 0 0 0 0 0 0 0 0 0 0 0 0 0 0 0 0 1 1 1 0 0 0 0 0 0 0 0 0 0 0 0
0 0 0 0 0 0 0 0 0 0 0 0 0 0 0 0 0 0 0 0 0 0 0 0 0 0 0 0 0 0 1 1 0 0 0 0 0 0 0 0 0 0 0 0
0 0 0 0 0 0 0 0 0 0 0 0 0 0 0 0 0 0 0 0 0 0 0 0 0 0 0 0 0 0 0 0 0 0 0 0 0 0 0 0 0 0 0 0
0 0 0 0 0 0 0 0 0 0 0 0 0 0 0 0 0 0 0 0 0 0 0 0 0 0 0 0 0 0 0 0 0 0 0 0 0 0 0 0 0 0 0 0
0 0 0 0 0 0 0 0 0 0 0 0 0 0 0 0 0 0 0 0 0 0 0 0 0 0 0 0 0 0 0 0 0 0 0 0 0 0 0 0 0 0 0 0
0 0 0 0 0 0 0 0 0 0 0 0 0 0 0 0 0 0 0 0 0 0 0 0 0 0 0 0 0 0 0 0 0 0 0 0 0 0 0 0 0 0 0 0
0 0 0 0 0 0 0 0 0 0 0 0 0 0 0 0 0 0 0 0 0 0 0 0 0 0 0 0 0 0 0 0 0 0 0 0 0 0 0 0 0 0 0 0
0 0 0 0 0 0 0 0 0 0 0 0 0 0 0 0 0 0 0 0 0 0 0 0 0 0 0 0 0 0 0 0 0 0 0 0 0 0 0 0 0 0 0 0
0 0 0 0 0 0 0 0 0 0 0 0 0 0 0 0 0 0 0 0 0 0 0 0 0 0 0 0 0 0 0 0 0 0 0 0 0 0 0 0 0 0 0 0
0 0 0 0 0 0 0 0 0 0 0 0 0 0 0 0 0 0 0 0 0 0 0 0 0 0 0 0 0 0 0 0 0 0 0 0 0 0 0 0 0 0 0 0
0 0 0 0 0 0 0 0 0 0 0 0 0 0 0 0 0 0 0 0 0 0 0 0 0 0 0 0 0 0 0 0 0 0 0 0 0 0 0 0 0 0 0 0
0 0 0 0 0 0 0 0 0 0 0 0 0 0 0 0 0 0 0 0 0 0 0 0 0 0 0 0 0 0 0 0 0 0 0 0 0 0 0 0 0 0 0 0
0 0 0 0 0 0 0 0 0 0 0 0 0 0 0 0 0 0 0 0 0 0 0 0 0 0 0 0 0 0 0 0 0 0 0 0 0 0 0 0 0 0 0 0
0 0 0 0 0 0 0 0 0 0 0 0 0 0 0 0 0 0 0 0 0 0 0 0 0 0 0 0 0 0 0 0 0 0 0 0 0 0 0 0 0 0 0 0
0 0 0 0 0 0 0 0 0 0 0 0 0 0 0 0 0 0 0 0 0 0 0 0 0 0 0 0 0 0 0 0 0 0 0 0 0 0 0 0 0 0 0 0
0 0 0 0 0 0 0 0 0 0 0 0 0 0 0 0 0 0 0 0 0 0 0 0 0 0 0 0 0 0 0 0 0 0 0 0 0 0 0 0 0 0 0 0
0 0 0 0 0 0 0 0 0 0 0 0 0 0 0 0 0 0 0 0 0 0 0 0 0 0 0 0 0 0 0 0 0 0 0 0 0 0 0 0 0 0 0 0
0 0 0 0 0 0 0 0 0 0 0 0 0 0 0 0 0 0 0 0 0 0 0 0 0 0 0 0 0 0 0 0 0 0 0 0 0 0 0 0 0 0 0 0
0 0 0 0 0 0 0 0 0 0 0 0 0 0 0 0 0 0 0 0 0 0 0 0 0 0 0 0 0 0 0 0 0 0 0 0 0 0 0 0 0 0 0 0
0 0 0 0 0 0 0 0 0 0 0 0 0 0 0 0 0 0 0 0 0 0 0 0 0 0 0 0 0 0 0 0 0 0 0 0 0 0 0 0 0 0 0 0
0 0 0 0 0 0 0 0 0 0 0 0 0 0 0 0 0 0 0 0 0 0 0 0 0 0 0 0 0 0 0 0 0 0 0 0 0 0 0 0 0 0 0 0
0 0 0 0 0 0 0 0 0 0 0 0 0 0 0 0 0 0 0 0 0 0 0 0 0 0 0 0 0 0 0 0 0 0 0 0 0 0 0 0 0 0 0 0
0 0 0 0 0 0 0 0 0 0 0 0 0 0 0 0 0 0 0 0 0 0 0 0 0 0 0 0 0 0 0 0 0 0 0 0 0 0 0 0 0 0 0 0
Wind_Speed
1 3 3 6 7 5 2 2 3 4 2 1 4 7 7 5 5 6 6 6 6 6 4 4 5 6 6 5 5 5 4 4 3 3 2 2 1 1 1 1 1 1 1 2
3 3 6 3 3 3 2 2 3 3 2 1 3 8 7 6 7 8 8 8 8 6 4 5 5 5 6 6 6 5 5 4 4 3 2 2 2 1 1 1 1 1 1 1
4 4 2 2 2 3 2 4 4 3 4 3 3 6 5 4 4 5 6 7 7 9 8 7 6 5 5 6 6 5 5 5 4 3 2 2 2 2 1 0 0 1 1 1
2 3 1 2 2 3 4 3 3 2 1 3 1 5 7 4 4 5 5 5 6 7 7 7 7 6 6 6 5 5 5 5 4 4 4 4 3 3 2 2 1 0 1 1
3 1 2 2 3 3 3 1 1 1 1 2 2 3 9 3 5 6 5 5 5 6 7 8 8 7 6 5 4 4 4 4 4 4 5 5 3 2 1 1 2 1 1 1
3 2 1 3 1 2 2 2 3 3 2 4 5 5 8 4 6 4 4 4 3 4 5 5 5 5 4 3 3 3 4 3 4 4 4 5 4 3 3 3 3 2 1 1
3 2 1 1 2 1 2 4 2 3 1 6 3 4 9 6 5 5 5 4 2 3 3 4 4 4 4 4 3 3 4 4 4 4 4 4 4 5 5 4 4 3 2 2
1 4 3 2 4 4 4 6 6 5 5 4 2 6 8 5 3 1 1 1 1 2 2 3 4 4 3 4 4 4 4 4 4 4 4 3 4 3 3 3 3 3 3 3
3 4 2 1 2 4 4 4 4 4 1 2 5 5 6 3 2 2 1 1 1 1 2 3 3 3 3 4 4 4 4 4 4 4 4 3 3 3 3 3 2 2 2 2
3 2 3 2 1 0 2 4 4 4 3 4 4 4 5 4 3 1 1 1 2 1 1 1 2 2 2 3 2 3 3 4 4 4 4 3 3 3 3 2 2 2 2 2
2 3 2 2 3 4 3 2 3 3 3 4 4 7 5 5 4 4 4 3 2 2 2 2 2 2 2 2 1 2 2 2 2 2 2 2 2 2 2 2 2 2 2 2
2 3 2 5 3 1 3 4 6 4 4 4 3 8 4 4 3 3 2 2 2 2 2 2 2 2 1 1 1 2 2 2 2 2 2 2 2 2 2 2 2 2 2 2
3 4 1 4 3 2 1 3 4 3 3 4 4 8 2 1 2 1 2 2 2 2 1 1 1 2 2 2 2 2 2 2 2 2 2 2 2 2 2 3 3 3 3 3
4 3 5 7 6 4 4 4 4 5 4 5 8 8 6 4 3 3 3 3 2 2 2 2 2 2 2 3 3 3 2 2 2 2 2 2 2 2 2 2 2 3 3 3
4 3 4 5 4 3 5 6 7 8 9 9 8 9 11 7 6 5 4 3 3 3 3 3 3 3 3 3 3 3 2 2 2 2 2 3 2 2 2 2 2 2 2 3
3 3 2 4 4 4 6 8 9 9 8 9 9 12 8 6 4 4 4 4 4 4 4 3 3 3 4 4 4 3 3 3 2 3 3 2 2 2 2 2 2 2 2 2
3 4 2 4 2 2 9 10 10 8 7 8 12 12 4 5 6 5 4 4 5 5 4 4 4 4 4 4 4 4 4 3 3 3 3 2 2 2 2 2 2 2 3 2
6 4 3 1 1 7 9 3 7 7 7 8 7 6 5 7 5 4 4 4 4 4 4 4 4 3 3 3 4 3 3 3 3 3 3 3 2 2 2 2 3 3 3 3
5 6 3 3 4 8 7 3 5 6 7 7 9 8 6 3 1 3 4 4 5 5 4 4 4 3 3 3 3 3 3 3 3 3 4 4 3 3 3 3 4 3 3 3
2 4 4 4 4 7 7 3 2 3 6 4 6 7 5 2 2 5 3 2 3 3 3 3 2 2 3 3 3 3 3 3 4 4 4 4 4 4 4 4 4 3 3 4
3 3 5 6 6 9 6 2 4 4 7 3 4 5 5 6 7 4 2 2 3 3 3 3 2 3 3 3 2 3 4 5 5 4 3 3 3 4 4 3 3 3 3 3
7 6 6 5 6 10 3 5 7 7 2 2 3 4 4 5 4 3 2 3 3 2 3 3 2 3 3 3 3 4 5 4 3 3 3 3 3 3 3 3 3 3 3 3
7 8 6 8 8 4 4 6 5 2 3 3 3 3 3 3 4 3 3 3 3 3 3 2 3 3 3 3 3 5 5 3 2 2 3 3 3 3 3 3 3 3 3 3
4 2 3 4 7 5 5 4 3 4 4 4 3 3 3 4 4 3 3 3 3 3 3 3 2 3 4 3 4 4 3 2 3 3 3 3 3 3 3 3 3 3 3 4
5 4 4 5 6 4 4 5 5 4 3 2 2 2 3 3 4 4 3 3 3 3 3 2 3 4 5 4 4 3 3 2 3 3 3 3 3 3 3 3 3 4 4 4
6 7 7 8 6 5 5 3 3 3 4 4 3 3 2 3 4 4 4 3 3 3 3 3 3 4 4 3 4 3 3 3 3 3 3 2 2 2 3 2 2 4 3 4
Wind_Direction
69 89 203 216 207 203 199 202 240 256 268 219 237 254 257 236 224 226 224 216 216 217 208 182 172 167 161 159 157 163 162 160 150 146 147 148 145 133 114 113 99 93 96 104
53 251 241 233 213 195 224 240 261 291 309 254 261 268 261 236 225 222 218 216 212 208 200 190 181 173 172 170 168 167 171 171 169 168 168 161 148 155 161 136 106 106 103 104
189 242 240 190 190 194 228 214 220 251 327 336 319 300 279 265 245 236 221 212 208 201 197 195 188 187 180 179 178 174 177 176 175 158 130 109 87 70 58 127 178 169 138 124
235 268 238 176 212 188 236 237 217 229 330 299 3 292 285 274 271 249 236 220 211 206 196 193 191 190 189 189 181 177 177 175 174 160 154 159 167 175 198 199 206 202 145 137
247 265 191 213 222 194 210 222 183 194 183 293 279 238 282 292 263 256 241 230 217 203 192 191 193 190 185 177 173 175 170 172 172 169 169 174 186 185 165 160 165 179 179 170
247 280 208 204 206 185 158 59 39 46 85 259 231 200 273 245 235 245 241 233 216 196 183 181 176 164 165 159 160 164 165 173 175 175 174 182 187 179 170 186 190 196 197 191
309 294 268 142 126 46 103 97 36 351 320 247 227 204 252 259 250 229 225 225 212 174 161 157 156 160 164 162 166 166 167 177 180 178 179 188 192 189 193 196 199 196 196 207
197 275 241 201 182 181 185 158 169 200 223 268 264 227 255 275 283 261 215 177 128 138 155 161 164 164 170 176 179 177 179 185 186 185 191 193 190 193 202 203 202 204 208 213
190 251 308 232 193 154 160 197 181 146 190 262 258 273 295 304 338 358 17 79 143 169 170 176 180 173 175 180 188 184 181 188 194 194 191 192 194 197 205 206 199 207 210 210
158 234 289 307 68 63 164 155 120 145 187 245 268 255 246 267 265 273 250 229 231 213 186 193 193 189 189 193 194 179 177 190 195 193 193 192 194 200 201 201 206 208 207 205
139 160 299 341 197 196 161 163 159 161 184 189 249 260 225 219 219 214 225 226 222 220 219 215 209 195 183 166 171 179 188 191 194 190 187 188 194 194 193 200 206 203 202 200
142 127 235 256 261 247 193 188 164 173 225 198 209 263 269 224 232 216 235 250 247 224 224 225 212 187 170 171 182 190 198 199 209 202 188 196 205 191 191 206 215 203 203 205
140 123 55 334 328 340 229 209 181 157 153 186 204 258 300 334 310 251 232 262 266 241 238 247 221 200 201 206 208 210 216 218 219 202 194 203 214 207 212 214 215 210 207 206
122 149 185 208 222 196 223 222 190 164 196 219 226 246 273 272 263 270 267 257 255 249 236 231 232 219 220 222 222 222 227 220 214 199 199 211 220 218 222 223 219 215 209 206
119 192 229 252 255 223 232 228 210 209 210 217 239 239 252 245 241 243 238 244 253 256 251 230 228 225 223 226 231 233 234 226 212 201 212 224 227 220 219 227 229 225 218 216
130 177 209 269 251 247 264 250 229 231 228 232 252 264 257 250 247 247 240 232 241 244 244 238 231 225 225 226 226 229 235 230 211 207 222 229 224 221 222 229 227 219 219 220
162 158 180 258 288 312 266 235 212 214 213 201 229 245 249 257 246 239 239 229 234 240 240 241 235 232 230 226 221 223 228 223 210 215 226 226 222 225 231 226 216 216 221 224
163 158 178 221 80 238 246 217 196 212 234 219 233 248 238 239 247 249 229 217 234 238 243 244 238 240 236 227 230 232 226 217 213 218 224 227 222 229 234 220 219 221 219 224
181 165 169 177 231 268 280 238 183 194 254 229 227 244 255 256 319 279 242 213 215 225 231 234 235 236 236 231 228 223 230 221 215 224 228 227 221 221 226 227 226 223 219 230
138 154 167 185 215 243 251 238 178 132 270 244 209 229 234 179 245 261 252 222 222 234 237 236 240 234 236 239 220 212 227 222 229 232 231 227 218 216 222 227 230 224 218 229
166 182 199 209 230 259 254 214 126 173 245 232 201 217 212 206 227 246 255 257 238 238 242 232 226 231 239 236 213 221 228 233 238 237 232 229 221 219 221 223 228 218 221 227
184 186 199 188 217 251 217 143 186 219 228 196 211 217 221 232 249 254 253 251 250 256 256 237 229 249 252 229 216 233 239 242 235 227 227 230 229 228 223 211 225 221 210 217
204 198 189 197 218 241 187 197 222 219 221 231 225 231 224 239 251 255 253 253 257 258 261 252 236 255 264 241 221 233 246 239 224 226 230 233 236 230 217 207 214 220 210 214
246 207 191 242 257 252 242 243 246 236 233 241 230 231 228 239 247 255 260 261 264 268 263 259 246 254 267 260 244 238 244 229 220 231 237 228 224 232 219 215 213 215 213 215
218 179 200 247 267 286 267 238 242 250 248 255 260 240 231 230 247 247 258 264 263 267 270 253 244 254 265 266 256 245 231 217 227 234 236 231 225 224 222 224 222 222 220 212
199 188 193 227 223 209 245 254 254 247 250 242 239 254 247 227 240 252 259 262 261 265 264 261 259 261 265 261 259 252 231 217 219 235 234 225 221 221 222 225 251 254 243 238